This is the latest recevied weather packets stored in our database for station/object VE6HFD-WX. If no packets are shown the sender has not sent any weather packets the latest 1 day(s).
| Time | Temp. | Humidity | Pressure | Rain* | Wind** | Luminosity | Snow |
|---|---|---|---|---|---|---|---|
| 1778020718 | 7.78° C | 38% | 1021.4 hPa | 0 mm | 3.13 m/s, 35° | - | - |
| 1778020418 | 7.22° C | 38% | 1021.4 hPa | 0 mm | 4.47 m/s, 12° | - | - |
| 1778020118 | 7.22° C | 39% | 1021.4 hPa | 0 mm | 4.02 m/s, 358° | - | - |
| 1778019788 | 6.67° C | 39% | 1021.6 hPa | 0 mm | 4.47 m/s, 7° | - | - |
| 1778019488 | 7.22° C | 38% | 1021.5 hPa | 0 mm | 4.47 m/s, 20° | - | - |
| 1778019158 | 7.78° C | 39% | 1021.6 hPa | 0 mm | 5.81 m/s, 24° | - | - |
| 1778018858 | 7.22° C | 39% | 1021.6 hPa | 0 mm | 2.24 m/s, 17° | - | - |
| 1778018528 | 7.22° C | 41% | 1021.6 hPa | 0 mm | 3.58 m/s, 350° | - | - |
| 1778018228 | 7.22° C | 38% | 1021.6 hPa | 0 mm | 4.02 m/s, 2° | - | - |
| 1778017928 | 7.22° C | 40% | 1021.6 hPa | 0 mm | 4.02 m/s, 3° | - | - |
| 1778017598 | 7.22° C | 40% | 1021.7 hPa | 0 mm | 5.36 m/s, 25° | - | - |
| 1778017268 | 7.22° C | 41% | 1021.8 hPa | 0 mm | 3.58 m/s, 327° | - | - |
| 1778016938 | 6.67° C | 42% | 1021.8 hPa | 0 mm | 3.13 m/s, 29° | - | - |
| 1778016638 | 7.22° C | 41% | 1021.9 hPa | 0 mm | 4.02 m/s, 353° | - | - |
| 1778016338 | 7.22° C | 41% | 1021.9 hPa | 0 mm | 3.58 m/s, 356° | - | - |
| 1778016008 | 7.22° C | 41% | 1022 hPa | 0 mm | 4.47 m/s, 28° | - | - |
| 1778015708 | 6.67° C | 43% | 1021.9 hPa | 0 mm | 3.58 m/s, 26° | - | - |
| 1778015378 | 6.67° C | 41% | 1021.9 hPa | 0 mm | 2.24 m/s, 306° | - | - |
| 1778015048 | 6.67° C | 42% | 1022 hPa | 0 mm | 2.68 m/s, 355° | - | - |
| 1778014718 | 7.22° C | 42% | 1022 hPa | 0 mm | 4.02 m/s, 5° | - | - |
| 1778014418 | 6.67° C | 41% | 1022.1 hPa | 0 mm | 3.13 m/s, 17° | - | - |
| 1778014118 | 6.67° C | 42% | 1022.1 hPa | 0 mm | 3.58 m/s, 33° | - | - |
| 1778013788 | 6.67° C | 43% | 1022.2 hPa | 0 mm | 4.47 m/s, 0° | - | - |
| 1778013488 | 6.67° C | 43% | 1022.1 hPa | 0 mm | 4.02 m/s, 358° | - | - |
| 1778013158 | 6.67° C | 45% | 1022.1 hPa | 0 mm | 5.81 m/s, 14° | - | - |
* Rain latest hour (hover to see other rain measurements)
** Current wind speed in m/s (hover to see current wind gust speed)